MST,Max TemperatureF,Mean TemperatureF,Min TemperatureF,Max Dew PointF,MeanDew PointF,Min DewpointF,Max Humidity, Mean Humidity, Min Humidity, Max Sea Level PressureIn, Mean Sea Level PressureIn, Min Sea Level PressureIn, Max VisibilityMiles, Mean VisibilityMiles, Min VisibilityMiles, Max Wind SpeedMPH, Mean Wind SpeedMPH, Max Gust SpeedMPH,PrecipitationIn, CloudCover, Events, WindDirDegrees
2012-10-1,95,75,54,29,27,24,33,21,8,30.07,29.91,29.84,10,10,10,15,6,17,0.00,0,,56
2012-10-2,95,76,56,29,25,20,30,19,7,29.87,29.80,29.75,10,10,10,18,4,24,0.00,0,,229
2012-10-3,94,78,61,29,26,23,23,16,8,30.02,29.82,29.75,10,10,10,22,9,26,0.00,0,,190
2012-10-4,88,74,60,30,28,23,24,17,10,30.12,29.89,29.83,10,10,10,24,10,31,0.00,0,,189
2012-10-5,87,72,57,30,28,27,33,22,11,30.11,29.88,29.82,10,10,10,20,10,25,0.00,0,,193
2012-10-6,85,71,56,30,28,26,29,21,12,30.00,29.82,29.75,10,10,10,17,8,21,0.00,0,,192
2012-10-7,86,70,53,31,28,26,38,26,13,29.86,29.80,29.75,10,10,10,14,6,20,0.00,0,,184
2012-10-8,84,68,52,40,35,27,50,34,17,30.00,29.83,29.78,10,10,10,23,9,29,0.00,0,,191
2012-10-9,84,72,59,50,44,37,55,41,26,30.01,29.82,29.76,10,10,10,25,11,33,0.00,0,,186
2012-10-10,83,72,61,54,42,34,72,45,18,30.01,29.80,29.72,10,10,10,22,12,25,0.00,1,,149
2012-10-11,76,64,51,56,49,39,100,65,29,29.93,29.80,29.70,10,9,2,31,11,41,0.29,6,Rain-Thunderstorm,160
2012-10-12,61,53,44,47,44,40,93,70,46,30.15,29.98,29.80,10,10,10,24,9,30,0.07,3,Rain,212
2012-10-13,72,57,41,47,42,39,89,62,34,30.25,30.11,30.02,10,10,10,13,4,18,0.00,0,,63
2012-10-14,81,66,50,46,44,41,77,51,25,30.13,30.03,29.95,10,10,10,16,9,21,0.00,0,,63
2012-10-15,85,68,51,45,38,26,71,42,13,29.97,29.90,29.83,10,10,10,16,4,18,0.00,0,,64
2012-10-16,86,68,50,42,36,26,66,39,12,30.00,29.81,29.70,10,10,10,14,3,17,0.00,0,,207
2012-10-17,85,68,50,40,31,19,66,39,11,29.90,29.83,29.75,10,10,10,16,7,20,0.00,0,,62
2012-10-18,83,67,50,30,18,7,44,25,5,30.02,29.95,29.91,10,10,10,12,7,14,0.00,0,,64
2012-10-19,86,64,42,27,21,16,45,27,8,29.96,29.87,29.78,10,10,10,5,2,6,0.00,0,,121
2012-10-20,83,65,47,44,27,17,45,27,9,29.86,29.72,29.65,10,10,10,23,8,26,0.00,0,,184
2012-10-21,79,68,57,50,46,41,67,48,29,29.88,29.68,29.64,10,10,10,26,12,35,0.00,0,,189
2012-10-22,74,63,52,49,43,29,71,49,27,29.92,29.76,29.70,10,10,10,15,13,21,0.00,0,,196
2012-10-23,74,61,48,37,30,16,61,39,16,29.80,29.75,29.70,10,10,10,23,11,30,0.00,0,,204
2012-10-24,68,55,42,31,24,16,49,34,18,29.98,29.85,29.74,10,10,10,23,10,28,0.00,0,,203
2012-10-25,71,54,37,21,18,13,48,30,11,30.15,30.02,29.96,10,10,10,17,5,23,0.00,0,,45
2012-10-26,67,53,38,22,13,8,48,29,10,30.15,30.07,29.98,10,10,10,21,13,26,0.00,0,,46
2012-10-27,75,56,37,16,10,7,29,19,9,30.10,29.97,29.89,10,10,10,12,7,16,0.00,0,,59
2012-10-28,80,59,37,16,14,10,37,22,7,30.01,29.96,29.90,10,10,10,13,4,15,0.00,0,,80
2012-10-29,82,62,41,19,16,12,34,21,7,30.16,30.03,29.97,10,10,10,3,4,5,0.00,0,,196
2012-10-30,83,62,41,20,17,13,36,22,7,30.05,29.98,29.92,10,10,10,12,3,12,0.00,0,,3
2012-10-31,81,61,40,21,17,13,38,24,9,29.99,29.93,29.88,10,10,10,18,5,22,0.00,0,,191